User: anonymous   Login
Location: Columbus
(29.5618°N, 96.6770°W)
Time: 15:20:54
(UTC-06:00)
Language:

Cosmos 2056 Rocket - Orbit

View from above orbital plane
View from above orbital plane
View from above satellite
View from above satellite

Ground track
Ground track

The orbit data is extracted from the following two-line orbital elements,

1 20433U 90004B   14329.76450821  .00000159  00000-0  63537-4 0  8742
2 20433 074.0369 271.3154 0042393 268.6774 135.5806 14.35721418301083
Epoch (UTC): 25 November 2014 18:20:53
Eccentricity: 0.0042393
inclination: 74.0369°
perigee height: 742 km
apogee height: 803 km
right ascension of ascending node: 271.3154°
argument of perigee: 268.6774°
revolutions per day: 14.35721418
mean anomaly at epoch: 135.5806°
orbit number at epoch: 30108

The dashed part of the orbit path shows where the satellite is in the earth's shadow,  

DLR